Regional Weather Roundup
Issued by NWS Bismarck, ND

Home | Current Version | Previous Version | Text Only | Print | Product List | Glossary On
Versions: 1 2 3 4 5 6 7 8 9 10 11 12 13 14 15 16 17 18 19 20 21 22 23 24 25 26 27 28 29 30 31 32 33 34 35 36 37 38 39 40 41 42 43 44 45 46 47 48 49 50
000
ASUS43 KBIS 291620
RWRBIS

NWR BROADCAST TEXT
NATIONAL WEATHER SERVICE BISMARCK ND
1000 AM CST MON DEC 29 2014

NOTE: "FAIR" INDICATES FEW OR NO CLOUDS BELOW 12,000 FEET WITH NO
SIGNIFICANT WEATHER AND/OR OBSTRUCTIONS TO VISIBILITY.


CITY           SKY/WX    TMP DP  RH WIND       PRES   REMARKS
WILLISTON      MOCLDY    -9 -16  71 N7        30.73R WCI -24
MINOT          PTCLDY   -11 -18  71 W10       30.68R WCI -30
MINOT AFB      PTCLDY   -14 -20  75 NW12      30.69R WCI -35
BISMARCK       PTSUNNY   -8 -14  74 NW9       30.69R WCI -25
DICKINSON      MOCLDY   -11 -17  75 W6        30.58R WCI -25
GARRISON         N/A     -9 -15  75 NW12      30.66R WCI -28
HETTINGER ARPT PTSUNNY   -5 -10  79 N9        30.57R WCI -22
JAMESTOWN      MOSUNNY   -9 -16  71 N10       30.65R WCI -27
BEACH          PTSUNNY  -11 -13  92 NW7       30.62R WCI -26
CARRINGTON     FAIR     -13 -17  84 MISG      30.68R
CROSBY         FAIR      -9 -15  77 NW14      30.73R WCI -31
HARVEY         FAIR     -13 -18  77 NW12      30.68R WCI -33
HAZEN          FAIR      -8 -13  77 CALM      30.70R
LINTON         CLOUDY    -6 -11  77 NW6       30.66R WCI -18
MANDAN         FAIR      -8 -13  77 N13       30.65R WCI -28
OAKES            N/A     -4 N/A N/A N14       30.66R WCI -24
RUGBY          FAIR     -17 -20  83 W10       30.68R WCI -37
STANLEY        FAIR     -11 -18  70 NW10G16   30.64R WCI -30
WATFORD CITY   FAIR     -11 -17  77 W5        30.68R WCI -23
$$

CITY           SKY/WX    TMP DP  RH WIND       PRES   REMARKS
GRAND FORKS    SUNNY    -11 -18  71 NW10      30.73R WCI -30
GRAND FORKS AF SUNNY    -10 -17  71 NW8       30.73R WCI -27
DEVILS LAKE    MOSUNNY  -11 -18  70 NW7       30.66R WCI -26
FARGO          SUNNY     -7 -14  71 N13       30.71R WCI -27
CANDO          FAIR     -11 -17  77 W5        30.68R WCI -23
CAVALIER       FAIR      -9 -17  70 NW7       30.72R WCI -24
GWINNER        SUNNY     -4 -13  65 N10       30.68R WCI -21
LANGDON        FAIR     -17 -22  76 NW9       30.63R WCI -36
ROLLA          FAIR     -13 -20  70 CALM      30.62R
WALHALLA         N/A     -9 -17  70 NW6       30.71R WCI -23
$$

CITY           SKY/WX    TMP DP  RH WIND       PRES   REMARKS
ABERDEEN       MOSUNNY   -1  -8  72 N12       30.67R WCI -18
MOBRIDGE       PTSUNNY   -1  -7  75 N10       30.61R WCI -17
BUFFALO          N/A      1  -4  79 N6        30.46R WCI -10
RAPID CITY     LGT SNOW   3  -2  79 N10       30.50R WCI -12
GLASGOW        CLEAR     -5 -11  75 N7        30.71R WCI -19
SIDNEY         PTCLDY    -8 -20  54 NW7       30.75R WCI -22
WOLF POINT     MOCLDY    -5 -12  72 CALM      30.75R
GLENDIVE       PTCLDY    -6  -8  92 NW7       30.67R WCI -20
MILES CITY     CLOUDY     2  -4  76 N8        30.62R WCI -12
BAKER          CLOUDY    -1  -6  79 N10       30.57R WCI -17
$$

CITY           SKY/WX    TMP DP  RH WIND       PRES   REMARKS
BILLINGS       LGT SNOW   1  -3  83 N3        30.54R FOG
GREAT FALLS    LGT SNOW   0  -2  92 N7        30.61R FOG     WCI -13
REGINA         PTCLDY   -18 -24  76 W9        30.73R WCI -38
ESTEVAN        CLOUDY   -17 -22  76 W9        30.71R WCI -36
$$




USA.gov is the U.S. government's official web portal to all federal, state and local government web resources and services.